Flag for India Weather past 2 weeks in Mirzapur, Uttar Pradesh, India

Now
57 °F

Fog.


Feels Like: 55 °F
Forecast: 56 / 65 °F
Wind: 9 mph from Northwest

Location: Varanasi / Babatpur

Current Time: Jan 27, 2015 at 12:20:09 AM

Latest Report: Jan 26, 2015 at 10:00 PM


Visibility: 1 mi

Pressure: 30.12 "Hg

Humidity: 94%

Dew point: 55 °F

Location of MirzapurLocation

Historic Weather in Mirzapur — Graph

°F

Mirzapur temperature yesterday

Maximum temperature yesterday: 63 °F (at 10:00 AM)
Minimum temperature yesterday: 55 °F (at 7:00 AM)
Average temperature yesterday: 59 °F

Past Weeks' High & Low Weather Summary

 TemperatureHumidityPressure
High73 °F (Jan 23, 3:00 PM)100% (Jan 12, 6:00 AM)30.24 "Hg (Jan 12, 6:00 AM)
Low41 °F (Jan 21, 6:00 AM)44% (Jan 22, 3:00 PM)29.89 "Hg (Jan 22, 12:00 AM)
Average55 °F88%30.09 "Hg
* Reported Jan 11 11:00 PM — Jan 26 10:00 PM, Mirzapur, Weather by CustomWeather, © 2014

Note: Actual official high and low records may vary slightly from our data, if they occured in-between our weather recording intervals... More about our weather records

Advertising

Mirzapur weather history for previous 24 hours

 ConditionsComfort  
Time TempWeatherWind HumidityBarometerVisibility
10:00 PM
Jan 26
57 °FFog.9 mph94%30.12 "Hg1 mi
9:00 PM57 °FFog.No wind100%30.09 "Hg1 mi
8:00 PM57 °FFog.3 mph94%30.07 "Hg1 mi
7:00 PM57 °FFog.3 mph94%30.07 "Hg1 mi
6:00 PM59 °FFog.7 mph94%30.07 "Hg1 mi
5:00 PM61 °FFog.No wind94%30.07 "Hg1 mi
4:00 PM61 °FFog.5 mph94%30.07 "Hg1 mi
3:00 PM61 °FFog.6 mph94%30.09 "Hg1 mi
2:00 PM61 °FLight rain. More clouds than sun.5 mph100%30.09 "Hg1 mi
1:00 PM61 °FRain. Scattered clouds.5 mph100%30.12 "Hg1 mi
12:00 PM59 °FRain. Scattered clouds.6 mph100%30.15 "Hg1 mi
11:00 AM63 °FFog.No wind88%30.15 "Hg1 mi
10:00 AM63 °FRain. Scattered clouds.2 mph88%30.15 "Hg1 mi
9:00 AM61 °FFog.No wind88%30.12 "Hg1 mi
7:00 AM55 °FFog.No wind100%30.09 "Hg1 mi
6:00 AM57 °FFog.No wind94%30.07 "Hg1 mi
4:00 AM57 °FFog.No wind100%30.07 "Hg1 mi
12:00 AM59 °FFog.1 mph100%30.12 "Hg1 mi
Weather by CustomWeather, © 2014

See weather overviewHow to use our weather pages